Location: Marcé
(47.5801°N, 0.3280°W)
Time: 22:49:54
(UTC+01:00)

Transit 2A - Pass Details

Date: 03 December 2021
Orbit: 591 x 967 km, 66.7° (Epoch: 16 January)

Event Time Altitude Azimuth Distance (km) Brightness Sun altitude
Rises 03:37:46 0° 265° (W) 3,421 - -48.1°
Reaches altitude 10° 03:40:45 10° 280° (W) 2,548 - -47.7°
Maximum altitude 03:45:21 22° 331° (NNW) 1,892 - -46.9°
Drops below altitude 10° 03:50:10 10° 21° (NNE) 2,688 - -46.2°
Exits shadow 03:50:35 - 23° (NNE) 2,800 9.2 -46.1°
Sets 03:53:25 0° 36° (NE) 3,658 10.0 -45.7°
